Weather reports worldwide

Advertisment
Belgrad, Serbia (13274): temperature & dewpoint: 17.10.2019 06:00:00 - 23.10.2019 06:00:00 (CEST)Belgrad, Serbia (13274): wind speed: 17.10.2019 06:00:00 - 23.10.2019 06:00:00 (CEST)Belgrad, Serbia (13274): wind direction: 17.10.2019 06:00:00 - 23.10.2019 06:00:00 (CEST)Belgrad, Serbia (13274): reduced air pressure: 17.10.2019 06:00:00 - 23.10.2019 06:00:00 (CEST)Belgrad, Serbia (13274): visibility: 17.10.2019 06:00:00 - 23.10.2019 06:00:00 (CEST)
Date & Time tt [°C] td [°C] ff [km/h] ff [kn] dd ppp [hPa] vv [km]
23.10.2019 06:00:00 - - - - - - -
23.10.2019 05:00:00 14,5 9,5 4 2 ESE 1021,5 6
23.10.2019 04:00:00 - - - - - - -
23.10.2019 03:00:00 - - - - - - -
23.10.2019 02:00:00 16,5 9,8 4 2 SE 1022,1 4,0
23.10.2019 01:00:00 - - - - - - -
23.10.2019 00:00:00 - - - - - - -
22.10.2019 23:00:00 17,7 10,3 4 2 ENE 1022,3 10
22.10.2019 22:00:00 - - - - - - -
22.10.2019 21:00:00 - - - - - - -
22.10.2019 20:00:00 19,4 11,7 4 2 ESE 1022,3 10
22.10.2019 19:00:00 - - - - - - -
22.10.2019 18:00:00 - - - - - - -
22.10.2019 17:00:00 25,4 12,1 4 2 NE 1021,6 10
22.10.2019 16:00:00 - - - - - - -
22.10.2019 15:00:00 - - - - - - -
22.10.2019 14:00:00 25,8 11,4 7 4 NNE 1022,5 8
22.10.2019 13:00:00 - - - - - - -
22.10.2019 12:00:00 - - - - - - -
22.10.2019 11:00:00 21,1 12,4 4 2 N 1024,2 8
22.10.2019 10:00:00 - - - - - - -
22.10.2019 09:00:00 - - - - - - -
22.10.2019 08:00:00 13,3 10,8 4 2 W 1023,6 8
22.10.2019 07:00:00 - - - - - - -
22.10.2019 06:00:00 - - - - - - -
22.10.2019 05:00:00 13,6 11,2 4 2 SE 1023,2 10
22.10.2019 04:00:00 - - - - - - -
22.10.2019 03:00:00 - - - - - - -
22.10.2019 02:00:00 14,8 12,0 4 2 SE 1022,9 10
22.10.2019 01:00:00 - - - - - - -
22.10.2019 00:00:00 - - - - - - -
21.10.2019 23:00:00 17,4 12,3 4 2 SSE 1022,4 10
21.10.2019 22:00:00 - - - - - - -
21.10.2019 21:00:00 - - - - - - -
21.10.2019 20:00:00 19,3 14,1 4 2 SE 1022,3 10
21.10.2019 19:00:00 - - - - - - -
21.10.2019 18:00:00 - - - - - - -
21.10.2019 17:00:00 25,1 12,1 7 4 NNE 1020,9 20
21.10.2019 16:00:00 - - - - - - -
21.10.2019 15:00:00 - - - - - - -
21.10.2019 14:00:00 25,2 11,4 4 2 NW 1021,8 15
21.10.2019 13:00:00 - - - - - - -
21.10.2019 12:00:00 - - - - - - -
21.10.2019 11:00:00 19,9 11,5 4 2 W 1022,8 15
21.10.2019 10:00:00 - - - - - - -
21.10.2019 09:00:00 - - - - - - -
21.10.2019 08:00:00 12,7 9,7 4 2 SSE 1022,2 15
21.10.2019 07:00:00 - - - - - - -
21.10.2019 06:00:00 - - - - - - -
21.10.2019 05:00:00 13,7 10,0 4 2 NNW 1021,0 15
21.10.2019 04:00:00 - - - - - - -
21.10.2019 03:00:00 - - - - - - -
21.10.2019 02:00:00 14,7 10,3 4 2 SSE 1020,2 15
21.10.2019 01:00:00 - - - - - - -
21.10.2019 00:00:00 - - - - - - -
20.10.2019 23:00:00 17,1 10,8 4 2 ESE 1019,7 15
20.10.2019 22:00:00 - - - - - - -
20.10.2019 21:00:00 - - - - - - -
20.10.2019 20:00:00 18,6 13,1 4 2 SE 1019,6 10
20.10.2019 19:00:00 - - - - - - -
20.10.2019 18:00:00 - - - - - - -
20.10.2019 17:00:00 24,2 10,5 0 0 N 1018,7 8
20.10.2019 16:00:00 - - - - - - -
20.10.2019 15:00:00 - - - - - - -
20.10.2019 14:00:00 24,7 12,0 7 4 NNE 1019,0 6
20.10.2019 13:00:00 - - - - - - -
20.10.2019 12:00:00 - - - - - - -
20.10.2019 11:00:00 21,0 13,6 4 2 W 1020,3 6
20.10.2019 10:00:00 - - - - - - -
20.10.2019 09:00:00 - - - - - - -
20.10.2019 08:00:00 13,0 12,1 4 2 SSE 1019,8 6
20.10.2019 07:00:00 - - - - - - -
20.10.2019 06:00:00 - - - - - - -
20.10.2019 05:00:00 14,1 13,0 4 2 ESE 1018,4 8
20.10.2019 04:00:00 - - - - - - -
20.10.2019 03:00:00 - - - - - - -
20.10.2019 02:00:00 15,0 13,6 4 2 SSE 1018,4 8
20.10.2019 01:00:00 - - - - - - -
20.10.2019 00:00:00 - - - - - - -
19.10.2019 23:00:00 17,1 14,0 7 4 ESE 1017,9 6
19.10.2019 22:00:00 - - - - - - -
19.10.2019 21:00:00 - - - - - - -
19.10.2019 20:00:00 18,8 15,6 4 2 SE 1017,4 6
19.10.2019 19:00:00 - - - - - - -
19.10.2019 18:00:00 - - - - - - -
19.10.2019 17:00:00 23,4 14,7 4 2 NNE 1016,4 6
19.10.2019 16:00:00 - - - - - - -
19.10.2019 15:00:00 - - - - - - -
19.10.2019 14:00:00 23,8 13,6 4 2 NNE 1016,2 6
19.10.2019 13:00:00 - - - - - - -
19.10.2019 12:00:00 - - - - - - -
19.10.2019 11:00:00 19,4 13,6 4 2 NNW 1018,2 8
19.10.2019 10:00:00 - - - - - - -
19.10.2019 09:00:00 - - - - - - -
19.10.2019 08:00:00 15,4 11,7 4 2 WNW 1017,9 6
19.10.2019 07:00:00 - - - - - - -
19.10.2019 06:00:00 - - - - - - -
19.10.2019 05:00:00 14,2 10,9 4 2 NNW 1017,4 6
19.10.2019 04:00:00 - - - - - - -
19.10.2019 03:00:00 - - - - - - -
19.10.2019 02:00:00 15,3 11,4 0 0 N 1017,5 8
19.10.2019 01:00:00 - - - - - - -
19.10.2019 00:00:00 - - - - - - -
18.10.2019 23:00:00 16,3 12,3 4 2 SE 1017,3 8
18.10.2019 22:00:00 - - - - - - -
18.10.2019 21:00:00 - - - - - - -
18.10.2019 20:00:00 18,5 13,8 4 2 SSE 1016,7 10
18.10.2019 19:00:00 - - - - - - -
18.10.2019 18:00:00 - - - - - - -
18.10.2019 17:00:00 22,8 13,5 4 2 W 1015,9 10
18.10.2019 16:00:00 - - - - - - -
18.10.2019 15:00:00 - - - - - - -
18.10.2019 14:00:00 24,0 14,7 7 4 W 1016,8 8
18.10.2019 13:00:00 - - - - - - -
18.10.2019 12:00:00 - - - - - - -
18.10.2019 11:00:00 19,0 12,8 4 2 WSW 1018,5 6
18.10.2019 10:00:00 - - - - - - -
18.10.2019 09:00:00 - - - - - - -
18.10.2019 08:00:00 13,8 11,4 4 2 S 1018,1 10
18.10.2019 07:00:00 - - - - - - -
18.10.2019 06:00:00 - - - - - - -
18.10.2019 05:00:00 12,8 11,5 4 2 SSE 1017,9 10
18.10.2019 04:00:00 - - - - - - -
18.10.2019 03:00:00 - - - - - - -
18.10.2019 02:00:00 14,9 13,1 0 0 N 1018,0 10
18.10.2019 01:00:00 - - - - - - -
18.10.2019 00:00:00 - - - - - - -
17.10.2019 23:00:00 16,0 13,0 0 0 N 1018,3 10
17.10.2019 22:00:00 - - - - - - -
17.10.2019 21:00:00 - - - - - - -
17.10.2019 20:00:00 18,7 13,9 4 2 ESE 1017,7 10
17.10.2019 19:00:00 - - - - - - -
17.10.2019 18:00:00 - - - - - - -
17.10.2019 17:00:00 23,1 12,8 4 2 NE 1017,0 10
17.10.2019 16:00:00 - - - - - - -
17.10.2019 15:00:00 - - - - - - -
17.10.2019 14:00:00 22,6 12,5 4 2 NNE 1018,1 10
17.10.2019 13:00:00 - - - - - - -
17.10.2019 12:00:00 - - - - - - -
17.10.2019 11:00:00 18,7 12,3 4 2 SSE 1019,6 10
17.10.2019 10:00:00 - - - - - - -
17.10.2019 09:00:00 - - - - - - -
17.10.2019 08:00:00 12,9 11,4 4 2 SSW 1019,6 16
17.10.2019 07:00:00 - - - - - - -
17.10.2019 06:00:00 - - - - - - -

tt = temperature
td = dewpoint
ff = wind speed
dd = wind direction
ppp = reduced air pressure
vv = visibility

Next stations